CFG3TW LDRI-EDDL

Flight info

Callsign CFG3TW
Flight time N/A
Altitude 34000
Route CRE DCT PEVAL DCT SOTOV DCT KPT DCT VEKIR DCT HAREM/N0445F350 DCT LOHRE/N0447F340 Z850 ADEMI T854 DOMUX DOMUX1A
Aircraft B753/M-SDE3FGHIM3RWXY/LB1

Departure

Time 2026-05-04 17:48
Airport Rijeka Airport (LDRI)

Arrival

Time N/A
Airport Düsseldorf Airport (EDDL)
Time Latitude Longitude Altitude Speed Heading
2026-05-04 17:20 45.21910 14.57139 293 ft 0 kts 103°
2026-05-04 17:41 45.21910 14.57140 293 ft 0 kts 104°
2026-05-04 17:42 45.21905 14.57154 293 ft 1 kts 129°
2026-05-04 17:42 45.21896 14.57161 293 ft 1 kts 170°
2026-05-04 17:42 45.21884 14.57153 293 ft 2 kts 228°
2026-05-04 17:42 45.21881 14.57132 293 ft 2 kts 281°
2026-05-04 17:43 45.21889 14.57112 293 ft 3 kts 305°
2026-05-04 17:43 45.21908 14.57082 293 ft 4 kts 320°
2026-05-04 17:43 45.21934 14.57051 293 ft 5 kts 322°
2026-05-04 17:43 45.21966 14.57016 293 ft 6 kts 322°
2026-05-04 17:44 45.21998 14.56967 293 ft 9 kts 300°
2026-05-04 17:44 45.22026 14.56854 292 ft 13 kts 286°
2026-05-04 17:44 45.22052 14.56728 291 ft 13 kts 291°
2026-05-04 17:44 45.22120 14.56606 291 ft 21 kts 321°
2026-05-04 17:45 45.22251 14.56470 289 ft 23 kts 324°
2026-05-04 17:45 45.22393 14.56322 287 ft 26 kts 324°
2026-05-04 17:45 45.22500 14.56221 285 ft 7 kts 338°
2026-05-04 17:45 45.22559 14.56206 285 ft 8 kts 346°
2026-05-04 17:46 45.22576 14.56174 284 ft 0 kts 253°
2026-05-04 17:46 45.22564 14.56161 284 ft 4 kts 193°
2026-05-04 17:46 45.22531 14.56179 285 ft 5 kts 142°
2026-05-04 17:46 45.22526 14.56185 285 ft 0 kts 143°
2026-05-04 17:47 45.22520 14.56190 285 ft 11 kts 143°
2026-05-04 17:47 45.22257 14.56466 289 ft 82 kts 144°
2026-05-04 17:48 45.21606 14.57147 292 ft 149 kts 143°
2026-05-04 17:48 45.20614 14.58191 444 ft 195 kts 144°
2026-05-04 17:48 45.19517 14.59337 1351 ft 197 kts 146°
2026-05-04 17:48 45.18293 14.60256 1892 ft 215 kts 164°
2026-05-04 17:49 45.16725 14.60444 2260 ft 236 kts 193°
2026-05-04 17:49 45.15251 14.59512 3083 ft 240 kts 216°
2026-05-04 17:49 45.13828 14.58125 3654 ft 258 kts 213°
2026-05-04 17:49 45.12283 14.56837 4521 ft 264 kts 210°
2026-05-04 17:50 45.10679 14.55608 5565 ft 264 kts 209°
2026-05-04 17:50 45.09051 14.54423 6473 ft 267 kts 208°
2026-05-04 17:50 45.07393 14.53253 7383 ft 270 kts 207°
2026-05-04 17:50 45.05713 14.52088 8255 ft 275 kts 207°
2026-05-04 17:51 45.04002 14.50916 9187 ft 277 kts 206°
2026-05-04 17:51 45.02259 14.49729 9990 ft 281 kts 206°
2026-05-04 17:51 45.00474 14.48520 10694 ft 292 kts 206°
2026-05-04 17:51 44.98575 14.47237 11073 ft 312 kts 206°
2026-05-04 17:52 44.96577 14.45877 11482 ft 331 kts 209°
2026-05-04 17:52 44.94669 14.43929 11872 ft 349 kts 226°
2026-05-04 17:52 44.93225 14.41122 12627 ft 356 kts 243°
2026-05-04 17:52 44.92424 14.37834 13408 ft 362 kts 259°
2026-05-04 17:53 44.92314 14.34303 14160 ft 370 kts 274°
2026-05-04 17:53 44.92934 14.30732 14918 ft 377 kts 291°
2026-05-04 17:53 44.94210 14.27556 15623 ft 383 kts 305°
2026-05-04 17:53 44.95773 14.24536 16350 ft 386 kts 301°
2026-05-04 17:54 44.97171 14.21309 17052 ft 389 kts 298°
2026-05-04 17:54 44.98510 14.17963 17753 ft 392 kts 297°
2026-05-04 17:54 44.99790 14.14595 18360 ft 397 kts 296°
2026-05-04 17:54 45.01075 14.11104 19040 ft 399 kts 296°
2026-05-04 17:55 45.02340 14.07604 19641 ft 403 kts 296°
2026-05-04 17:55 45.03605 14.04064 20269 ft 406 kts 295°
2026-05-04 17:55 45.04870 14.00496 20878 ft 409 kts 295°
2026-05-04 17:55 45.06133 13.96918 21466 ft 412 kts 295°
2026-05-04 17:56 45.07414 13.93278 22022 ft 415 kts 295°
2026-05-04 17:56 45.08688 13.89648 22567 ft 419 kts 295°
2026-05-04 17:56 45.09988 13.85936 23131 ft 421 kts 295°
2026-05-04 17:56 45.11296 13.82197 23688 ft 424 kts 295°
2026-05-04 17:57 45.12609 13.78437 24209 ft 428 kts 296°
2026-05-04 17:57 45.13919 13.74680 24742 ft 431 kts 295°
2026-05-04 17:57 45.15253 13.70849 25274 ft 434 kts 295°
2026-05-04 17:57 45.16575 13.67046 25765 ft 437 kts 295°
2026-05-04 17:58 45.17917 13.63179 26262 ft 440 kts 295°
2026-05-04 17:58 45.19281 13.59245 26745 ft 443 kts 295°
2026-05-04 17:58 45.20634 13.55334 27194 ft 447 kts 295°
2026-05-04 17:58 45.22004 13.51371 27657 ft 449 kts 295°
2026-05-04 17:59 45.23365 13.47426 28101 ft 452 kts 295°
2026-05-04 17:59 45.24757 13.43388 28539 ft 455 kts 295°
2026-05-04 17:59 45.27529 13.35325 29374 ft 461 kts 295°
2026-05-04 18:00 45.28956 13.31165 29814 ft 464 kts 294°
2026-05-04 18:00 45.30439 13.27329 30166 ft 468 kts 302°
2026-05-04 18:00 45.32276 13.23905 30533 ft 472 kts 310°
2026-05-04 18:00 45.34660 13.20654 31071 ft 471 kts 317°
2026-05-04 18:01 45.37127 13.17672 31724 ft 467 kts 317°
2026-05-04 18:01 45.39597 13.14670 32286 ft 464 kts 317°
2026-05-04 18:01 45.42020 13.11736 32869 ft 460 kts 317°
2026-05-04 18:02 45.46858 13.05881 33881 ft 454 kts 317°
2026-05-04 18:02 45.49236 13.03005 34058 ft 454 kts 317°
2026-05-04 18:02 45.54027 12.97202 34059 ft 450 kts 317°
2026-05-04 18:03 45.58802 12.91406 34069 ft 452 kts 317°
2026-05-04 18:03 45.63565 12.85615 34071 ft 451 kts 317°
2026-05-04 18:04 45.68344 12.79791 34068 ft 453 kts 317°
2026-05-04 18:05 45.75431 12.71129 34064 ft 454 kts 317°
2026-05-04 18:05 45.80191 12.65295 34068 ft 453 kts 317°
2026-05-04 18:06 45.87365 12.56476 34065 ft 453 kts 317°
2026-05-04 18:06 45.92124 12.50609 34062 ft 453 kts 317°
2026-05-04 18:07 45.96876 12.44735 34059 ft 453 kts 317°
2026-05-04 18:07 46.01635 12.38840 34064 ft 452 kts 317°
2026-05-04 18:08 46.06398 12.32927 34080 ft 453 kts 316°
2026-05-04 18:08 46.11165 12.26995 34102 ft 453 kts 316°
2026-05-04 18:09 46.20697 12.15089 34128 ft 452 kts 316°
2026-05-04 18:10 46.25432 12.09154 34130 ft 453 kts 316°
2026-05-04 18:10 46.30169 12.03202 34131 ft 453 kts 316°
2026-05-04 18:11 46.34922 11.97216 34129 ft 453 kts 316°
2026-05-04 18:11 46.39671 11.91220 34120 ft 454 kts 316°
2026-05-04 18:12 46.44420 11.85210 34120 ft 456 kts 316°
2026-05-04 18:12 46.49184 11.79167 34123 ft 457 kts 316°
2026-05-04 18:13 46.53952 11.73103 34122 ft 458 kts 316°
2026-05-04 18:14 46.61131 11.63947 34129 ft 458 kts 316°
2026-05-04 18:14 46.65895 11.57851 34132 ft 458 kts 316°
2026-05-04 18:15 46.75410 11.45632 34133 ft 458 kts 316°
2026-05-04 18:16 46.80182 11.39481 34131 ft 459 kts 316°
2026-05-04 18:16 46.84982 11.33279 34141 ft 459 kts 316°
2026-05-04 18:17 46.92127 11.24019 34143 ft 459 kts 316°
2026-05-04 18:18 46.99693 11.15442 34144 ft 460 kts 322°
2026-05-04 18:18 47.04860 11.10008 34154 ft 460 kts 321°
2026-05-04 18:19 47.12634 11.01780 34142 ft 460 kts 321°
2026-05-04 18:19 47.17849 10.96235 34126 ft 461 kts 321°
2026-05-04 18:20 47.23034 10.90709 34132 ft 462 kts 321°
2026-05-04 18:20 47.28251 10.85133 34098 ft 464 kts 321°
2026-05-04 18:21 47.33427 10.79588 34085 ft 464 kts 321°
2026-05-04 18:21 47.38632 10.73998 34091 ft 465 kts 322°
2026-05-04 18:22 47.43864 10.68364 34078 ft 465 kts 321°
2026-05-04 18:22 47.49060 10.62755 34066 ft 466 kts 322°
2026-05-04 18:23 47.54296 10.57089 34050 ft 468 kts 322°
2026-05-04 18:23 47.59554 10.51384 34041 ft 468 kts 322°
2026-05-04 18:24 47.64825 10.45651 34029 ft 471 kts 322°
2026-05-04 18:24 47.70070 10.39932 33999 ft 470 kts 322°
2026-05-04 18:25 47.75648 10.34843 34015 ft 474 kts 336°
2026-05-04 18:25 47.81917 10.31799 33996 ft 475 kts 341°
2026-05-04 18:26 47.88214 10.28948 33990 ft 475 kts 341°
2026-05-04 18:26 47.94527 10.26110 33993 ft 475 kts 341°
2026-05-04 18:27 48.00903 10.23247 33983 ft 475 kts 341°
2026-05-04 18:27 48.07216 10.20409 33983 ft 476 kts 342°
2026-05-04 18:28 48.13526 10.17566 33974 ft 477 kts 342°
2026-05-04 18:28 48.19893 10.14691 33971 ft 476 kts 342°
2026-05-04 18:29 48.25986 10.11933 33974 ft 477 kts 341°
2026-05-04 18:29 48.32304 10.09065 33958 ft 476 kts 341°
2026-05-04 18:30 48.41810 10.04736 33956 ft 476 kts 341°
2026-05-04 18:31 48.48153 10.01837 33958 ft 477 kts 341°
2026-05-04 18:31 48.54446 9.98954 33964 ft 476 kts 341°
2026-05-04 18:32 48.60818 9.96029 33970 ft 477 kts 341°
2026-05-04 18:32 48.67097 9.93138 33965 ft 475 kts 341°
2026-05-04 18:33 48.73412 9.90168 33956 ft 475 kts 338°
2026-05-04 18:33 48.79608 9.86797 33954 ft 474 kts 338°
2026-05-04 18:34 48.85804 9.83432 33954 ft 474 kts 338°
2026-05-04 18:34 48.92012 9.80054 33951 ft 473 kts 338°
2026-05-04 18:35 48.98166 9.76699 33955 ft 474 kts 338°
2026-05-04 18:35 49.04350 9.73318 33954 ft 474 kts 338°
2026-05-04 18:36 49.10551 9.69919 33958 ft 474 kts 337°
2026-05-04 18:36 49.16722 9.66527 33954 ft 474 kts 337°
2026-05-04 18:37 49.22959 9.63091 33949 ft 474 kts 337°
2026-05-04 18:37 49.29149 9.59670 33958 ft 475 kts 337°
2026-05-04 18:38 49.35377 9.56220 33947 ft 474 kts 337°
2026-05-04 18:38 49.41577 9.52776 33943 ft 475 kts 337°
2026-05-04 18:39 49.47744 9.49341 33941 ft 475 kts 337°
2026-05-04 18:39 49.53957 9.45871 33942 ft 476 kts 337°
2026-05-04 18:40 49.60288 9.42762 33961 ft 480 kts 347°
2026-05-04 18:40 49.66987 9.42394 33963 ft 487 kts
2026-05-04 18:41 49.73729 9.43392 33943 ft 487 kts
2026-05-04 18:41 49.80482 9.44438 33940 ft 487 kts
2026-05-04 18:42 49.87209 9.45505 33942 ft 488 kts
2026-05-04 18:42 49.93895 9.46576 33943 ft 486 kts
2026-05-04 18:43 50.00649 9.47292 33954 ft 483 kts 354°
2026-05-04 18:43 50.07117 9.45258 33964 ft 473 kts 335°
2026-05-04 18:44 50.12776 9.40292 33957 ft 464 kts 320°
2026-05-04 18:44 50.17871 9.34270 33949 ft 463 kts 317°
2026-05-04 18:45 50.22914 9.28045 33949 ft 461 kts 316°
2026-05-04 18:45 50.27903 9.21762 33953 ft 462 kts 316°
2026-05-04 18:46 50.32887 9.15427 33954 ft 462 kts 316°
2026-05-04 18:46 50.37834 9.09111 33755 ft 456 kts 316°
2026-05-04 18:46 50.40245 9.06034 33251 ft 433 kts 316°
2026-05-04 18:47 50.42508 9.03136 32814 ft 411 kts 315°
2026-05-04 18:47 50.44644 9.00394 32445 ft 396 kts 315°
2026-05-04 18:47 50.46792 8.97622 32055 ft 401 kts 315°
2026-05-04 18:47 50.48943 8.94846 31658 ft 406 kts 315°
2026-05-04 18:48 50.51126 8.92032 31248 ft 405 kts 315°
2026-05-04 18:48 50.53287 8.89278 30839 ft 401 kts 317°
2026-05-04 18:48 50.55497 8.86640 30421 ft 396 kts 317°
2026-05-04 18:48 50.57665 8.84047 30001 ft 392 kts 317°
2026-05-04 18:49 50.59842 8.81436 29583 ft 390 kts 317°
2026-05-04 18:49 50.61986 8.78860 29171 ft 389 kts 317°
2026-05-04 18:49 50.64112 8.76303 28763 ft 388 kts 317°
2026-05-04 18:49 50.66254 8.73724 28347 ft 386 kts 317°
2026-05-04 18:50 50.68391 8.71149 27927 ft 384 kts 318°
2026-05-04 18:50 50.70509 8.68592 27516 ft 381 kts 318°
2026-05-04 18:50 50.72594 8.66074 27114 ft 379 kts 318°
2026-05-04 18:50 50.74693 8.63533 26586 ft 380 kts 318°
2026-05-04 18:51 50.76753 8.61039 26085 ft 376 kts 319°
2026-05-04 18:51 50.78809 8.58548 25670 ft 369 kts 319°
2026-05-04 18:51 50.80824 8.56103 25262 ft 365 kts 318°
2026-05-04 18:51 50.82838 8.53655 24951 ft 361 kts 318°
2026-05-04 18:52 50.84810 8.51257 24966 ft 358 kts 318°
2026-05-04 18:52 50.86793 8.48837 24974 ft 367 kts 318°
2026-05-04 18:52 50.88826 8.46358 24969 ft 371 kts 319°
2026-05-04 18:52 50.90852 8.43887 24961 ft 369 kts 318°
2026-05-04 18:53 50.92897 8.41389 24964 ft 367 kts 318°
2026-05-04 18:53 50.94910 8.38926 24968 ft 368 kts 318°
2026-05-04 18:53 50.96917 8.36468 24969 ft 369 kts 318°
2026-05-04 18:53 50.98962 8.33960 24965 ft 367 kts 317°
2026-05-04 18:54 51.00975 8.31496 24969 ft 366 kts 320°
2026-05-04 18:54 51.03141 8.29352 24986 ft 370 kts 327°
2026-05-04 18:54 51.05396 8.27350 24971 ft 372 kts 326°
2026-05-04 18:54 51.07640 8.25338 24970 ft 371 kts 326°
2026-05-04 18:55 51.09907 8.23312 24974 ft 370 kts 326°
2026-05-04 18:55 51.14404 8.19302 24977 ft 371 kts 327°
2026-05-04 18:55 51.16675 8.17275 24973 ft 373 kts 327°
2026-05-04 18:56 51.19085 8.15701 24982 ft 378 kts 343°
2026-05-04 18:56 51.21638 8.15195 24866 ft 374 kts 359°
2026-05-04 18:56 51.24241 8.15752 24357 ft 376 kts 12°
2026-05-04 18:56 51.26743 8.16812 23834 ft 376 kts 13°
2026-05-04 18:57 51.29240 8.17905 23234 ft 365 kts 13°
2026-05-04 18:57 51.31648 8.18948 22711 ft 354 kts 13°
2026-05-04 18:57 51.33992 8.19961 22186 ft 344 kts 13°
2026-05-04 18:57 51.36247 8.20939 21674 ft 335 kts 13°
2026-05-04 18:58 51.38464 8.21897 21151 ft 325 kts 13°
2026-05-04 18:58 51.40611 8.22820 20674 ft 319 kts 13°
2026-05-04 18:58 51.42769 8.23740 20209 ft 324 kts 13°
2026-05-04 18:58 51.44950 8.24661 19712 ft 325 kts 13°
2026-05-04 18:59 51.47129 8.25575 19218 ft 327 kts 14°
2026-05-04 18:59 51.49331 8.26488 18668 ft 327 kts 13°
2026-05-04 18:59 51.51494 8.27375 18214 ft 321 kts 13°
2026-05-04 18:59 51.53654 8.28258 17736 ft 323 kts 14°
2026-05-04 19:00 51.55825 8.29141 17161 ft 317 kts 13°
2026-05-04 19:00 51.57920 8.29859 16669 ft 306 kts 359°
2026-05-04 19:00 51.59941 8.29402 16260 ft 287 kts 332°
2026-05-04 19:00 51.61551 8.27622 15872 ft 283 kts 308°
2026-05-04 19:01 51.62794 8.25130 15422 ft 285 kts 304°
2026-05-04 19:01 51.63954 8.22596 14937 ft 285 kts 303°
2026-05-04 19:01 51.65123 8.20024 14448 ft 286 kts 303°
2026-05-04 19:01 51.66299 8.17425 13999 ft 283 kts 304°
2026-05-04 19:02 51.67401 8.14973 13944 ft 263 kts 303°
2026-05-04 19:02 51.68473 8.12601 13961 ft 262 kts 303°
2026-05-04 19:02 51.69568 8.10169 13976 ft 277 kts 303°
2026-05-04 19:02 51.70699 8.07644 13953 ft 276 kts 303°
2026-05-04 19:03 51.71811 8.05157 13950 ft 271 kts 303°
2026-05-04 19:03 51.72903 8.02706 13954 ft 272 kts 303°
2026-05-04 19:03 51.74010 8.00208 13951 ft 272 kts 301°
2026-05-04 19:03 51.74704 7.97426 13978 ft 266 kts 273°
2026-05-04 19:04 51.74498 7.94513 13996 ft 266 kts 245°
2026-05-04 19:04 51.73443 7.92107 13989 ft 265 kts 218°
2026-05-04 19:04 51.71793 7.90816 13996 ft 266 kts 194°
2026-05-04 19:04 51.70030 7.89991 13964 ft 266 kts 210°
2026-05-04 19:05 51.68616 7.88127 14002 ft 264 kts 227°
2026-05-04 19:05 51.67313 7.86024 13956 ft 266 kts 223°
2026-05-04 19:05 51.65949 7.84072 13997 ft 263 kts 221°
2026-05-04 19:05 51.64531 7.82137 13961 ft 262 kts 220°
2026-05-04 19:06 51.63132 7.80292 13958 ft 259 kts 219°
2026-05-04 19:06 51.61716 7.78459 13961 ft 262 kts 219°
2026-05-04 19:06 51.60302 7.76651 13960 ft 263 kts 218°
2026-05-04 19:06 51.58893 7.74862 13901 ft 265 kts 218°
2026-05-04 19:07 51.57465 7.73056 13961 ft 262 kts 218°
2026-05-04 19:07 51.56007 7.71217 13962 ft 264 kts 218°
2026-05-04 19:07 51.54550 7.69384 13646 ft 269 kts 218°
2026-05-04 19:07 51.53093 7.67554 13319 ft 263 kts 219°
2026-05-04 19:08 51.51664 7.65761 12946 ft 262 kts 219°
2026-05-04 19:08 51.50243 7.63980 12572 ft 258 kts 218°
2026-05-04 19:08 51.48845 7.62229 12196 ft 255 kts 218°
2026-05-04 19:08 51.47456 7.60491 11821 ft 253 kts 218°
2026-05-04 19:09 51.46083 7.58774 11452 ft 252 kts 219°
2026-05-04 19:09 51.45088 7.57531 11185 ft 251 kts 218°
2026-05-04 19:09 51.44166 7.56380 10935 ft 250 kts 218°
2026-05-04 19:09 51.42202 7.53840 10385 ft 247 kts 228°
2026-05-04 19:10 51.41165 7.51583 10040 ft 247 kts 236°
2026-05-04 19:10 51.40222 7.49338 9924 ft 233 kts 235°
2026-05-04 19:10 51.39324 7.47211 9968 ft 235 kts 235°
2026-05-04 19:10 51.38387 7.44977 9960 ft 246 kts 236°
2026-05-04 19:11 51.37703 7.43335 9961 ft 246 kts 237°
2026-05-04 19:11 51.36649 7.40811 9955 ft 242 kts 236°
2026-05-04 19:11 51.35719 7.38581 9954 ft 240 kts 236°
2026-05-04 19:11 51.34794 7.36362 9955 ft 240 kts 236°
2026-05-04 19:12 51.33910 7.34244 9956 ft 241 kts 235°
2026-05-04 19:13 51.29127 7.22804 8239 ft 250 kts 234°
2026-05-04 19:13 51.28165 7.20513 7948 ft 245 kts 234°
2026-05-04 19:13 51.27272 7.18377 7954 ft 222 kts 234°
2026-05-04 19:14 51.26399 7.16237 7965 ft 236 kts 242°
2026-05-04 19:14 51.26045 7.13659 7998 ft 243 kts 271°
2026-05-04 19:14 51.26563 7.11075 7750 ft 258 kts 301°
2026-05-04 19:14 51.27864 7.09093 7413 ft 256 kts 324°
2026-05-04 19:15 51.29373 7.07744 6995 ft 253 kts 342°
2026-05-04 19:15 51.31076 7.07616 7005 ft 242 kts 15°
2026-05-04 19:15 51.32562 7.08880 7022 ft 252 kts 40°
2026-05-04 19:15 51.33539 7.10299 6968 ft 256 kts 46°